Погода в Куберганя

Россия / Республика Саха (Якутия)     67°46′10″N   144°29′15″E
темп.,
°C
ветер,
м/с
пор.,
м/с
влажн.,
%
обл.,
%
осадки,
мм/ч
давл.,
гПа
погр.,
м
27 февраля, сб
сб2723:00−35ююв0010055 0.0 103419
02:00−35вюв0110075 0.0 103419
05:00−35зсз0110085 0.1 103319
08:00−36ссв0010096 0.0 103319
11:00−34ю119795 0.1 103319
14:00−31зюз009496 0.0 1032120
17:00−33в009890 0.0 103119
20:00−36ююв1110054 0.0 103119
28 февраля, вс
вс2823:00−36ююв1110060 0.0 103119
02:00−36юв0110085 0.0 103019
05:00−37юв0010092 0.0 102819
08:00−37ююв11100100 0.0 102819
11:00−35юв0098100 0.0 102819
14:00−33вюв0195100 0.0 1027130
17:00−35вюв019897 0.0 102619
20:00−38вюв1110031 0.0 102719
1 марта, пн
пн123:00−39з0010019 0.0 102719
02:00−39з111009 0.0 102619
05:00−40зсз1110010 0.0 102619
08:00−40зсз129916 0.0 102618
11:00−38зсз129527 0.0 102519
14:00−35зсз129273 0.0 1024126
17:00−36зсз129379 0.0 102419
20:00−38з119394 0.0 102519
2 марта, вт
вт223:00−37сз129385 0.0 102519
02:00−39з119740 0.0 102519
05:00−39зсз129722 0.0 102518
08:00−40зсз11994 0.0 102619
11:00−36зсз129319 0.0 102719
14:00−34сз129154 0.0 1027135
17:00−35зсз119357 0.0 102719
20:00−38зсз019866 0.0 102919
3 марта, ср
ср323:00−38сз119959 0.0 102919
02:00−38зсз1110088 0.0 102919
05:00−37сз119994 0.0 102919
08:00−37с1198100 0.0 102818
11:00−35ссз1196100 0.0 102744
14:00−34ссз1292100 0.0 1025224
17:00−34с1295100 0.0 102433
20:00−36ссз1297100 0.0 102319